Regional Weather Roundup
Issued by NWS Cleveland, OH

Home | Current Version | Previous Version | Graphics & Text | Print | Product List | Glossary On
Versions: 1 2 3 4 5 6 7 8 9 10 11 12 13 14 15 16 17 18 19 20 21 22 23 24 25 26 27 28 29 30 31 32 33 34 35 36 37 38 39 40 41 42 43 44 45 46 47 48 49 50
000
ASUS41 KCLE 192010
RWRCLE
OHIO REGIONAL WEATHER ROUNDUP
NATIONAL WEATHER SERVICE WILMINGTON, OH
400 PM EDT SAT APR 19 2014

NOTE: "FAIR" INDICATES FEW OR NO CLOUDS BELOW 12,000 FEET WITH NO
SIGNIFICANT WEATHER AND/OR OBSTRUCTIONS TO VISIBILITY.

OHZ001>008-015>018-024>027-034-035-043-044-192100-
   NORTHWEST OHIO

CITY           SKY/WX    TMP DP  RH WIND       PRES   REMARKS
DEFIANCE       SUNNY     58  29  33 E14       30.36F
FINDLAY        SUNNY     57  26  30 NE17      30.36F
TOLEDO EXPRESS SUNNY     53  26  35 E9        30.38F
TOLEDO METCALF SUNNY     53  29  39 E12       30.40F
LIMA           SUNNY     60  34  37 NE12G21   30.34F
$$

OHZ009>014-019>023-028>033-038-089-192100-
   NORTHEAST OHIO

CITY           SKY/WX    TMP DP  RH WIND       PRES   REMARKS
CLE-HOPKINS    SUNNY     51  26  37 NE17      30.41F
CLE-LAKEFRONT  SUNNY     45  36  70 N17       30.39S
CUY CO. ARPT   SUNNY     52  30  43 NE16      30.38F
LORAIN-ELYRIA  SUNNY     53  27  36 NE15      30.39S
ASHTABULA      SUNNY     50  24  36 NE12G18   30.39S
AKRON-CANTON   MOSUNNY   57  24  27 E7        30.33F
WOOSTER        SUNNY     60  29  30 NE9G16    30.34S
MANSFIELD      SUNNY     58  25  28 NE8G18    30.34S
YOUNGSTOWN     MOSUNNY   58  21  24 N7        30.33F
$$

OHZ042-051>053-060>062-070>072-077>081-192100-
  SOUTHWEST OHIO

CITY           SKY/WX    TMP DP  RH WIND       PRES   REMARKS
CINC-COVINGTON SUNNY     69  34  27 NE12      30.24F
CINC-LUNKEN    SUNNY     68  39  34 NE16      30.25F
HAMILTON       SUNNY     69  39  33 E10       30.27F
DAYTON         SUNNY     65  38  36 E15       30.30F
WRIGHT-PAT AFB SUNNY     65  36  33 NE13G20   30.28F
DAYTON GENERAL SUNNY     66  37  34 NE13      30.27F
WILMINGTON     SUNNY     65  35  33 NE15G21   30.26F
$$

OHZ036-037-039>041-045>050-054>059-063>069-073>076-082>088-192100-
  CENTRAL AND SOUTHEAST OHIO

CITY           SKY/WX    TMP DP  RH WIND       PRES   REMARKS
COLUMBUS       SUNNY     66  32  28 NE14      30.28F
OSU AIRPORT    SUNNY     63  34  33 NE12      30.29F
BOLTON FIELD   SUNNY     63  37  39 N10G18    30.29F
RICKENBACK AFB SUNNY     67  29  23 NE13G23   30.27F
NEWARK         SUNNY     64  32  30 N12G20    30.27F
MARION         SUNNY     60  29  30 NE17      30.33F
LANCASTER      SUNNY     66  36  32 NE14G20   30.27F
ZANESVILLE     SUNNY     65  32  29 NE8G18    30.28F
NEW PHILLY     SUNNY     62  20  19 VRB7      30.31F
$$



USA.gov is the U.S. government's official web portal to all federal, state and local government web resources and services.